Powrót do katalogu

NOAA 16 DEB

AktywnySSO
NORAD 41055·DEBRIS·🇺🇸 United States

Wystrzelony Sep 21, 2000 z Vandenberg Space Force Base

Loading…

Następne Przeloty (najbliższe 24 godziny)

TLE

ŚwieżeSource: Space-Track

Epoka: Sep 14, 2026, 06:10 UTC

1 41055U 00055N   26257.25717024  .00002709  00000-0  93251-3 0  9996
2 41055  98.7971  14.1442 0012848 298.3931  61.5959 14.36779552560377

Śledź NOAA 16 DEB w czasie rzeczywistym z AllMySat

Download on the App Store